Location: Unspecified
(0.0000°N, 0.0000°E)
Time: 06:36:53
(UTC+00:00)

Altair - Pass Details

Date: 25 November 2019
Orbit: 1502 x 1682 km, 47.2° (Epoch: 10 December)

Event Time Altitude Azimuth Distance (km) Brightness Sun altitude
Rises 20:42:37 0° 204° (SSW) 4,870 10.7 -40.4°
Reaches altitude 10° 20:46:09 10° 196° (SSW) 3,858 10.0 -41.2°
Enters shadow 20:51:56 31° 165° (SSE) 2,531 8.6 -42.5°
